Other Public Products
Issued by NWS Grand Forks, ND

Home | Current Version | Previous Version | Text Only | Print | Product List | Glossary Off
Versions: 1 2 3 4 5 6 7 8 9 10 11 12 13 14 15 16 17 18 19 20 21 22 23 24 25 26 27 28 29 30 31 32 33 34 35 36 37 38 39 40 41 42 43 44 45 46 47 48 49 50

000
FPUS83 KFGF 240210
OPUFGF
PRAIRIE TO PINES WEATHER ROUNDUP
NATIONAL WEATHER SERVICE EASTERN NORTH DAKOTA/GRAND FORKS ND
900 PM CDT MON APR 23 2018

 **SATELLITE DATA USED TO AUGMENT SKY COVER AT AUTOMATED STATIONS**
 *****  WEATHER ACROSS EASTERN NORTH DAKOTA  *****

CITY           SKY/WX    TMP DP  RH WIND       PRES   REMARKS
GRAND FORKS    MOCLDY    53  42  66 CALM      30.18R
GRND FORKS AFB CLOUDY    50  36  60 NW3       30.19
GRND FORKS NWS   N/A     55  36  48 N2        30.16R
BUXTON           N/A     55  43  64 NE5         N/A
DEVILS LAKE    FAIR      49  37  63 N12       30.23R
FARGO          FAIR      56  40  55 N8        30.16R
WAHPETON ARPT  FAIR      55  41  58 N13       30.14R
$$

 *****  WEATHER ACROSS CENTRAL AND WESTERN NORTH DAKOTA  *****

CITY           SKY/WX    TMP DP  RH WIND       PRES   REMARKS
JAMESTOWN      CLOUDY    53  40  61 N9        30.17R
BISMARCK       CLOUDY    53  36  52 N20G29    30.21R
MINOT          CLOUDY    50  31  48 NW12      30.27R
MINOT AFB      FAIR      50  26  39 N9        30.27
GARRISON         N/A     43  41  93 N12       30.28R
WILLISTON      FAIR      48  22  35 N9        30.33R
DICKINSON      LGT RAIN  40  37  89 N18G31    30.25R
HETTINGER      CLOUDY    44  33  65 N30G43    30.16R
$$

 *****  OTHER OBSERVATIONS NORTHEAST NORTH DAKOTA  *****

CITY           SKY/WX    TMP DP  RH WIND       PRES   REMARKS
WALHALLA       FAIR      50  36  57 NW12      30.21R
LANGDON        MOCLDY    48  37  66 NW8       30.22R
CAVALIER         N/A     54  37  54 NW6       30.19R
GRAFTON        FAIR      54  37  54 N13       30.21R
CANDO          CLOUDY    48  36  61 N7        30.26R
FORT TOTTEN      N/A     50  35  57 N3        29.95S
ROLLA          FAIR      46  30  53 NW15      30.25R
RUGBY          CLOUDY    48  34  57 NW10      30.24R
 ***** THE ABOVE OBSERVATIONS ARE NON NWS ARE NOT QUALITY
        CONTROLLED AND MAY MIS-REPORT RAIN FOR SNOW...
$$

 *****  OTHER OBSERVATIONS SOUTHEAST NORTH DAKOTA *****

CITY           SKY/WX    TMP DP  RH WIND       PRES   REMARKS
COOPERSTOWN    FAIR      52  41  66 NE9       30.19R
VALLEY CITY    CLOUDY    54  43  66 NE5       30.19R
OAKES            N/A     54  43  66 NE14      30.16R
GWINNER          N/A     55  45  67 N10       30.16R
SHEYENNE NWR     N/A     58  42  54 NE8       29.95S
BUFFALO          N/A     52  43  71 W9          N/A
WYNDMERE       NOT AVBL
 ***** THE ABOVE OBSERVATIONS ARE NON NWS ARE NOT QUALITY
       CONTROLLED AND MAY MIS-REPORT RAIN FOR SNOW...
$$

  *****  WEATHER ACROSS NORTHERN MINNESOTA  *****

CITY           SKY/WX    TMP DP  RH WIND       PRES   REMARKS
FLAG ISLAND    FAIR      48  28  46 W5        30.14S
WARROAD        FAIR      52  34  50 CALM      30.16R
ROSEAU         FAIR      52  41  66 NE5       30.16R
HALLOCK        MOCLDY    54  36  50 NW10      30.19R
THF RVR FALLS  FAIR      52  36  54 W6        30.18R
HALSTAD        NOT AVBL
FOSSTON        FAIR      48  36  61 NW6       30.18R
BAUDETTE       FAIR      46  28  49 NW8       30.14R
WASKISH        FAIR      41  30  65 CALM      30.15R
CROOKSTON      FAIR      54  43  66 CALM      30.19R
$$
  *****  WEATHER ACROSS CENTRAL AND WEST MINNESOTA  *****

CITY           SKY/WX    TMP DP  RH WIND       PRES   REMARKS
BEMIDJI        FAIR      48  30  49 NW6       30.15R
PARK RAPIDS    FAIR      50  33  52 NW8       30.13R
WADENA         FAIR      55  41  58 NW6       30.13R
DETROIT LAKES  FAIR      52  36  54 N5        30.17R
MOORHEAD       FAIR      54  39  58 N10       30.17R
FERGUS FALLS   FAIR      57  39  51 N7        30.11R
ELBOW LAKE     CLOUDY    55  42  63 CALM      30.13S
MORRIS MN      FAIR      59  45  58 CALM      30.12R
STAPLES        FAIR      54  37  54 CALM      30.13R
WHEATON        CLOUDY    57  48  72 E3        30.14R
$$
  *****  WEATHER ELSEWHERE ACROSS MINNESOTA  *****

CITY           SKY/WX    TMP DP  RH WIND       PRES   REMARKS
DULUTH         FAIR      57  36  45 SW7       30.10R
INTRNTL FALLS  FAIR      52  29  41 N7        30.13R
ELY            FAIR      52  27  37 CALM      30.11R
CLOQUET        FAIR      59  34  38 SW5       30.11R
BRAINERD       MOCLDY    54  35  48 CALM      30.12R
HIBBING        FAIR      46  28  49 NW3       30.11R
ALEXANDRIA     CLOUDY    61  38  42 CALM      30.13S
SAINT CLOUD    FAIR      53  39  59 CALM      30.12R
MINNEAPOLIS    FAIR      64  39  39 W6        30.12S
$$

  *****  WEATHER ACROSS SOUTH DAKOTA  *****

CITY           SKY/WX    TMP DP  RH WIND       PRES   REMARKS
SIOUX FALLS    MOCLDY    57  41  55 E8        30.12R
BROOKINGS      MOCLDY    57  42  57 SE9       30.13R
WATERTOWN      CLOUDY    58  43  57 SE6       30.12R
HURON          CLOUDY    61  43  51 E8        30.09R
SISSETON         N/A     57  47  69 NE3       30.12R
ABERDEEN       CLOUDY    61  46  57 NE14G21   30.11R
MITCHELL       CLOUDY    59  44  57 E7        30.09R
PIERRE         CLOUDY    61  42  49 E8        30.04R
MOBRIDGE       CLOUDY    60  44  55 NE22G31   30.06R
RAPID CITY     MOCLDY    44  38  79 NW31G40   30.10R
$$

  *****  SOME WEATHER IN NEARBY STATES *****

CITY           SKY/WX    TMP DP  RH WIND       PRES   REMARKS
GLASGOW MT     FAIR      50  23  34 N6        30.35S
GREAT FALLS MT FAIR      48  19  31 CALM      30.42R
CHEYENNE WY    MOCLDY    40  38  93 MISG      30.16R
SCOTTSBLUFF NE RAIN      45  45 100 NW23G40   30.18R
OMAHA NE       FAIR      64  30  27 E9        30.06R
DES MOINES IA  FAIR      66  28  24 E6        30.07R
DAVENPORT IA   FAIR      56  32  40 NE9       30.08R
CHICAGO IL     CLOUDY    52  26  36 NE14      30.12R
EAU CLAIRE WI  FAIR      56  31  38 CALM      30.11S
LA CROSSE WI   FAIR      63  28  26 E3        30.10R
$$

  *****  SOME NATIONAL WEATHER *****

CITY           SKY/WX    TMP DP  RH WIND       PRES   REMARKS
LA GUARDIA NY  MOCLDY    52  38  58 VRB6      30.44S
RALEIGH NC     MOCLDY    60  52  74 E17       30.21F
ATLANTA GA     TSTM      62  62 100 E14       29.87S
NEW ORLEANS LA FAIR      68  56  65 N6        29.97R
OKLAHOMA CITY  FAIR      62  47  57 N7        30.03R
ALBUQUERQUE NM FAIR      74  22  14 SE3       30.03R
SALT LAKE CITY FAIR      60  26  27 N7        30.14S
LOS ANGELES CA CLOUDY    56  52  86 W10       29.98S
BOISE ID       FAIR      62  27  26 NW12      30.19S
SEATTLE WA     FAIR      65  37  35 N15       30.21F
$$

*** WEATHER ACROSS MANITOBA...SASKATCHEWAN AND ONTARIO ***
                ***ONTARIO***

CITY           SKY/WX    TMP DP  RH WIND       PRES   REMARKS
GERALDTON      MOCLDY    50  27  40 SW7       30.03R
THUNDER BAY    PTCLDY    43  34  70 E2        30.07R
SIOUX LOOKOUT  PTCLDY    43  28  56 N9        30.15R
TORONTO        MOCLDY    55  19  24 NE3       30.22S
BIG TROUT LK   FLURRIES  30  27  86 NW12G17   30.06S WCI  21
PICKLE LAKE    CLOUDY    41  28  60 W16G26    30.08R
DRYDEN         CLEAR     45  30  57 N6        30.14R
KENORA         MOCLDY    50  30  46 N6        30.15R
$$
                *** MANITOBA***

CITY           SKY/WX    TMP DP  RH WIND       PRES   REMARKS
BRANDON        MOCLDY    41  32  70 NW8       30.27R
DAUPHIN        CLOUDY    46  28  49 NW15G21   30.26R
ISLAND LAKE    CLOUDY    28  23  80 N16       30.17R WCI  17
PILOT MOUND      N/A     48  30  49 NW10G17     N/A
THE PAS        PTCLDY    34  23  64 NW13G20   30.29R WCI  25
THOMPSON       LGT SNOW  21  18  86 N7        30.27R WCI  13
WINNIPEG       PTCLDY    46  34  61 NW9       30.20R
LYNN LAKE      PTCLDY    25  21  86 CALM      30.29S
CHURCHILL      FLURRIES  18  14  86 N14       30.29R WCI   4
GILLAM         LGT SNOW  21  18  86 N16       30.23R VSB 5/8 WCI   7
$$
                ***SASKATCHEWAN***

CITY           SKY/WX    TMP DP  RH WIND       PRES   REMARKS
ESTEVAN        MOCLDY    43  21  42 N12       30.33R
KINDERSLEY     PTCLDY    50  30  46 NW9       30.35R
LLOYDMINSTER   PTCLDY    48  27  43 W3        30.30S
PRINCE ALBERT  PTCLDY    48  27  43 NE5       30.32R
REGINA         PTCLDY    46  23  39 N7        30.34R
YORKTON        CLEAR     41  25  52 NW8       30.30R



USA.gov is the U.S. government's official web portal to all federal, state and local government web resources and services.